This is the latest recevied weather packets stored in our database for station/object E20ZNR-1. If no packets are shown the sender has not sent any weather packets the latest 10 day(s).
| Time | Temp. | Humidity | Pressure | Rain* | Wind** | Luminosity | Snow |
|---|---|---|---|---|---|---|---|
| 1777496943 | 28.33° C | 99% | 1005 hPa | - | - | 0 W/m² | - |
| 1777496018 | 27.78° C | 99% | 1005 hPa | - | - | 0 W/m² | - |
| 1777495094 | 27.78° C | 99% | 1005 hPa | - | - | 0 W/m² | - |
| 1777494168 | 27.78° C | 99% | 1005 hPa | - | - | 0 W/m² | - |
| 1777493243 | 27.78° C | 99% | 1005 hPa | - | - | 0 W/m² | - |
| 1777492319 | 27.78° C | 99% | 1005 hPa | - | - | 0 W/m² | - |
| 1777491393 | 27.78° C | 99% | 1004 hPa | - | - | 0 W/m² | - |
| 1777490468 | 27.78° C | 99% | 1004 hPa | - | - | 0 W/m² | - |
| 1777489543 | 27.78° C | 99% | 1004 hPa | - | - | 0 W/m² | - |
| 1777488618 | 27.78° C | 99% | 1004 hPa | - | - | 0 W/m² | - |
| 1777487693 | 28.33° C | 99% | 1005 hPa | - | - | 0 W/m² | - |
| 1777486768 | 28.33° C | 98% | 1005 hPa | - | - | 0 W/m² | - |
| 1777485844 | 28.33° C | 95% | 1005 hPa | - | - | 0 W/m² | - |
| 1777484919 | 28.33° C | 94% | 1005 hPa | - | - | 0 W/m² | - |
| 1777483993 | 28.33° C | 93% | 1005 hPa | - | - | 0 W/m² | - |
| 1777483069 | 28.89° C | 89% | 1005 hPa | - | - | 0 W/m² | - |
| 1777482144 | 28.89° C | 90% | 1006 hPa | - | - | 0 W/m² | - |
| 1777481218 | 28.89° C | 89% | 1006 hPa | - | - | 0 W/m² | - |
| 1777480293 | 29.44° C | 89% | 1006 hPa | - | - | 0 W/m² | - |
| 1777479367 | 28.89° C | 90% | 1006 hPa | - | - | 0 W/m² | - |
| 1777478442 | 29.44° C | 84% | 1006 hPa | - | - | 0 W/m² | - |
| 1777477517 | 29.44° C | 85% | 1005 hPa | - | - | 0 W/m² | - |
| 1777476591 | 29.44° C | 83% | 1005 hPa | - | - | 0 W/m² | - |
| 1777475667 | 29.44° C | 83% | 1005 hPa | - | - | 0 W/m² | - |
| 1777474742 | 30° C | 83% | 1004 hPa | - | - | 0 W/m² | - |
* Rain since midnight (hover to see other rain measurements)
** Current wind speed in m/s (hover to see current wind gust speed)